Temp
10 9 9 9 9 9 9 10 10 10 10 10 10 10 10 10 10 10 11 11 11 11 11 11 11 11 11 12 12 11 11 11 11 11 11 10 10 11 11 11 11 11 11 11 11 11 11 11 11 11 11 11 11 11 11 11 11 11 11 11 11 11 10 10 10 10 11 11 11
10 9 9 9 9 9 9 9 10 10 10 9 9 9 10 10 10 10 10 10 10 11 11 11 11 11 11 11 11 11 11 11 11 11 10 10 10 11 11 11 11 11 11 11 11 11 11 11 11 11 11 11 11 11 11 11 11 11 11 11 11 11 11 10 10 10 11 11 11
10 9 9 9 9 9 9 9 9 9 9 9 9 9 9 10 10 10 10 10 10 10 10 11 11 11 11 11 11 11 11 11 11 11 10 10 10 11 11 11 11 11 11 11 11 11 11 11 11 11 11 11 11 11 11 11 11 11 11 11 11 11 11 11 11 11 11 11 11
9 9 9 9 9 9 9 9 9 9 9 9 9 9 9 9 10 10 10 10 10 10 10 10 10 11 10 10 10 10 10 11 11 11 10 10 10 10 11 11 11 11 11 11 11 11 11 11 11 11 11 11 11 11 11 11 11 11 11 11 11 11 11 11 11 11 11 11 11
9 9 9 9 9 9 9 9 9 9 9 9 9 9 9 9 10 10 10 11 10 10 10 10 10 10 10 10 10 10 10 10 10 10 10 9 10 10 11 11 11 11 11 11 11 11 11 11 11 11 11 11 11 11 11 11 11 11 11 11 11 11 11 11 11 11 11 11 11
9 9 9 9 9 8 8 8 8 8 8 9 9 9 9 9 10 10 11 11 11 10 10 10 10 10 10 10 10 10 10 10 10 10 10 9 9 10 10 10 11 11 11 11 11 11 11 11 11 11 11 11 11 11 11 11 11 10 10 10 10 11 11 10 10 10 11 11 11
8 8 8 8 8 8 8 8 8 8 8 8 9 9 9 10 10 11 11 11 11 10 10 10 10 10 10 10 10 10 10 9 9 10 9 9 9 9 10 10 10 11 11 11 11 11 11 11 11 11 11 11 11 10 10 10 10 10 10 10 10 11 11 10 10 10 10 10 10
8 8 8 8 8 8 8 8 8 8 8 8 9 9 9 10 10 11 11 11 10 10 10 10 10 10 10 10 10 10 9 9 9 8 8 8 8 9 9 10 10 10 11 11 11 11 11 11 11 11 11 11 11 10 10 10 10 10 10 10 10 10 10 10 10 10 10 10 10
8 8 8 8 8 8 8 8 8 8 8 8 9 9 10 10 10 10 10 10 10 10 10 10 10 10 10 10 9 9 8 8 7 7 7 7 8 8 9 9 10 10 10 10 11 11 11 11 11 11 11 11 11 10 10 10 10 10 10 10 10 10 10 10 10 10 10 10 10
8 8 8 8 8 8 8 8 8 8 8 9 9 10 10 10 10 10 10 10 10 10 10 10 10 10 9 9 9 8 7 7 7 7 8 8 8 8 9 9 10 10 10 10 10 10 10 10 10 10 11 11 10 10 10 10 10 10 10 10 10 9 9 10 10 10 10 10 10
7 8 8 8 8 8 8 8 8 8 8 9 9 9 9 9 9 9 9 9 9 9 9 9 9 9 9 8 8 7 7 7 7 8 8 8 9 9 9 9 9 9 10 10 10 10 10 10 10 10 10 10 10 10 10 10 10 10 10 10 9 9 9 9 9 10 10 10 9
7 7 7 7 8 8 8 8 8 8 9 9 9 9 9 9 9 9 9 9 9 9 9 9 9 8 8 7 7 7 6 7 7 8 8 8 8 9 9 9 9 9 9 9 9 9 9 10 10 10 10 10 10 10 10 10 10 10 10 10 10 9 9 9 9 9 9 9 9
7 7 7 7 7 8 8 8 8 8 8 9 9 9 9 9 9 9 9 9 9 9 9 9 8 8 7 7 6 6 6 6 7 8 8 8 8 8 8 8 9 9 9 9 9 9 9 10 10 10 10 10 10 10 10 10 10 10 10 10 10 9 9 9 9 9 9 9 8
7 7 7 7 7 7 7 7 8 8 8 8 8 8 8 8 8 9 9 9 8 8 8 8 8 8 7 7 6 6 6 6 7 7 8 8 8 8 8 8 8 8 8 9 9 9 9 9 9 9 9 9 9 10 10 10 10 10 10 10 10 9 9 9 9 9 8 8 8
7 7 7 7 7 7 7 7 7 7 7 7 7 8 8 8 8 8 8 8 8 8 7 7 7 7 7 7 7 7 7 7 7 7 7 8 8 8 8 8 8 8 8 9 9 9 9 9 9 9 9 9 9 9 9 9 9 9 9 9 9 9 9 9 8 8 8 8 8
7 6 6 6 6 6 6 6 6 7 7 7 7 7 7 7 7 7 7 7 7 7 7 6 6 7 7 6 6 6 7 7 7 7 7 7 7 7 7 7 8 8 8 9 9 9 9 9 9 9 9 9 9 9 9 9 9 9 9 9 9 9 9 8 8 8 8 8 8
6 6 6 6 6 6 6 6 6 6 7 7 7 6 6 6 7 7 7 6 6 6 6 6 6 6 6 6 6 6 6 6 7 7 7 7 7 7 7 7 7 8 8 8 9 9 8 8 8 8 8 8 8 8 8 8 8 8 8 8 8 8 8 8 8 8 8 8 8
5 5 6 6 6 6 6 6 6 6 6 6 6 6 6 6 6 6 6 6 6 6 6 6 6 5 5 5 5 5 6 6 6 7 7 7 7 7 7 7 7 8 8 8 8 8 8 7 8 8 8 7 7 7 7 7 8 8 8 8 8 8 7 7 7 7 7 7 7
4 4 4 5 5 5 5 5 5 5 5 5 6 6 6 6 6 6 5 5 5 5 5 5 5 5 5 5 5 5 6 6 6 6 6 6 6 6 6 7 7 7 7 7 7 7 7 7 7 7 7 7 7 7 7 7 7 7 7 7 7 7 7 7 7 6 6 6 6
3 3 3 4 4 4 4 4 4 4 5 5 5 5 5 5 5 5 5 5 5 5 5 5 5 5 5 5 5 5 5 6 6 6 6 6 6 6 6 6 6 6 7 7 6 6 6 6 6 6 6 6 6 6 6 6 7 7 7 7 7 7 7 7 7 6 6 6 5
3 3 3 3 3 3 3 3 4 4 4 4 4 4 4 4 5 5 5 5 5 5 5 5 5 5 4 4 4 5 5 6 6 6 6 6 5 5 5 6 6 6 6 6 6 6 6 6 6 6 6 6 6 6 6 6 6 7 7 7 6 6 6 6 6 6 6 5 5
3 3 3 3 3 3 3 3 3 3 3 3 3 4 4 4 4 4 4 4 5 5 4 4 4 4 4 4 4 4 5 5 6 6 5 5 5 5 5 5 5 6 6 6 6 6 6 6 6 6 6 6 5 5 5 6 6 6 6 6 6 6 5 5 5 5 5 4 4
3 2 2 2 2 2 2 2 2 2 3 3 3 3 3 3 4 4 4 4 4 4 4 4 3 3 3 3 3 4 4 5 5 5 5 4 4 4 4 4 4 5 5 5 5 5 5 5 5 5 5 5 5 5 5 5 5 6 6 6 5 5 5 5 4 4 4 5 5
2 2 2 2 2 2 2 2 2 2 2 2 2 2 3 3 3 3 3 3 3 3 3 3 3 3 3 3 3 3 3 4 4 4 4 4 4 4 4 3 3 3 4 4 4 4 4 4 4 4 4 4 4 4 5 5 5 5 5 5 5 5 5 4 4 4 5 5 5
2 2 2 2 2 2 2 2 2 2 2 2 2 2 2 2 2 2 3 3 3 3 2 2 2 2 2 2 2 2 3 3 3 2 2 3 3 3 3 2 2 2 2 2 2 3 3 3 4 4 4 4 4 4 4 5 5 5 5 5 5 5 5 4 4 4 4 5 5
1 1 1 1 1 1 1 1 1 1 1 1 1 2 2 2 2 2 2 2 2 2 2 2 2 2 2 1 1 2 2 2 2 1 1 2 2 2 2 2 1 1 1 1 2 2 3 3 4 4 4 4 4 4 4 4 4 4 4 4 4 4 4 4 4 4 4 4 4
1 1 1 1 1 1 1 1 1 1 1 1 1 1 1 1 1 1 1 1 1 1 1 1 1 1 1 1 1 1 1 1 1 0 1 1 1 1 1 1 1 1 1 1 2 2 3 3 3 4 4 4 4 4 4 4 4 4 4 4 4 4 4 4 4 4 4 4 4
0 0 0 0 0 0 0 0 0 0 1 1 1 0 0 0 0 0 0 0 0 0 0 0 0 0 -0 -0 -0 0 0 0 -0 -0 -0 -0 0 1 1 1 1 0 0 1 1 2 2 3 3 3 3 3 3 3 4 4 4 4 4 4 4 4 4 4 3 3 3 3 3
-0 -0 -0 -0 -0 -0 -0 -0 -0 -0 -0 -0 -0 -0 -0 -0 -0 -0 -0 -0 -0 -0 -0 -1 -1 -1 -1 -1 -1 -1 -0 -0 -1 -1 -1 -1 -0 0 0 0 0 -0 -0 0 1 1 2 2 3 3 3 3 3 3 3 3 3 3 3 3 3 3 3 3 2 2 2 2 2
-1 -1 -1 -1 -1 -1 -1 -1 -1 -1 -1 -1 -1 -1 -1 -1 -2 -2 -2 -2 -1 -1 -1 -2 -2 -2 -2 -2 -1 -1 -1 -1 -1 -1 -1 -1 -1 -1 -0 -0 -0 -0 -0 0 1 1 1 2 2 2 3 3 3 3 3 3 2 2 2 2 2 2 2 1 1 1 0 0 0
-2 -2 -2 -2 -2 -2 -2 -2 -2 -2 -2 -2 -2 -2 -2 -2 -2 -3 -2 -2 -2 -2 -2 -2 -3 -3 -3 -2 -2 -2 -2 -2 -2 -2 -2 -1 -1 -1 -1 -1 -1 -1 -0 -0 0 0 1 1 2 2 2 2 2 2 2 2 2 1 1 1 1 1 0 0 -0 -0 -1 -1 -1
-3 -3 -2 -2 -3 -3 -3 -3 -3 -3 -3 -3 -3 -3 -3 -3 -3 -3 -3 -3 -3 -3 -3 -3 -3 -3 -3 -3 -2 -2 -2 -2 -2 -2 -2 -2 -1 -1 -1 -1 -1 -1 -0 -0 -0 0 0 1 1 1 1 2 2 1 1 1 1 1 0 -0 -0 -0 -1 -1 -1 -1 -2 -2 -2
-3 -3 -3 -3 -3 -3 -3 -3 -3 -3 -3 -3 -3 -3 -3 -3 -3 -3 -3 -3 -3 -4 -4 -3 -3 -3 -3 -3 -3 -3 -3 -3 -3 -2 -2 -2 -1 -1 -1 -1 -1 -0 -1 -1 -1 -0 -0 0 0 1 1 1 1 1 0 0 -0 -0 -1 -1 -1 -1 -2 -2 -2 -2 -2 -3 -3
-3 -3 -3 -3 -3 -3 -3 -3 -3 -3 -3 -3 -3 -3 -3 -3 -3 -3 -4 -4 -4 -4 -4 -4 -4 -4 -4 -4 -4 -3 -3 -3 -3 -2 -2 -2 -1 -1 -1 -1 -1 -1 -1 -1 -1 -1 -1 -0 -0 -0 0 0 -0 -0 -1 -1 -1 -1 -2 -2 -2 -2 -2 -2 -3 -3 -3 -3 -4
-3 -3 -3 -3 -3 -3 -3 -3 -3 -3 -3 -3 -3 -3 -3 -3 -3 -4 -4 -4 -4 -4 -4 -4 -4 -4 -4 -4 -4 -4 -3 -3 -3 -3 -3 -2 -2 -2 -2 -2 -2 -2 -3 -2 -2 -2 -1 -1 -1 -1 -1 -1 -1 -2 -2 -2 -2 -2 -2 -2 -3 -3 -3 -3 -3 -4 -4 -4 -4
-2 -2 -2 -2 -2 -3 -3 -3 -3 -3 -3 -3 -3 -3 -4 -4 -4 -4 -4 -4 -4 -4 -4 -4 -4 -5 -4 -4 -4 -4 -4 -4 -4 -4 -3 -3 -3 -3 -2 -2 -2 -3 -3 -3 -2 -2 -2 -2 -2 -2 -2 -2 -2 -2 -3 -3 -3 -3 -3 -3 -3 -3 -4 -4 -4 -4 -4 -4 -4
-2 -2 -2 -2 -2 -3 -3 -3 -3 -3 -3 -3 -3 -4 -4 -4 -4 -4 -5 -5 -5 -5 -5 -5 -5 -5 -5 -5 -4 -5 -5 -4 -4 -4 -4 -4 -4 -3 -3 -3 -3 -3 -3 -3 -3 -3 -3 -3 -3 -3 -3 -3 -3 -3 -3 -3 -3 -3 -3 -3 -3 -4 -4 -4 -4 -4 -4 -4 -4
-2 -2 -2 -2 -2 -3 -3 -3 -3 -3 -3 -3 -3 -4 -4 -4 -4 -4 -5 -5 -5 -5 -5 -5 -5 -5 -5 -5 -5 -5 -5 -5 -5 -5 -5 -5 -4 -4 -4 -4 -4 -4 -4 -4 -4 -4 -4 -4 -4 -3 -3 -3 -3 -3 -3 -3 -3 -3 -3 -3 -3 -3 -4 -4 -4 -4 -4 -4 -4
-2 -2 -3 -3 -3 -3 -3 -3 -3 -4 -4 -4 -4 -4 -4 -4 -4 -5 -5 -5 -5 -5 -5 -5 -5 -5 -5 -5 -5 -5 -5 -6 -6 -5 -5 -5 -4 -4 -4 -4 -4 -5 -5 -5 -5 -4 -4 -4 -4 -3 -3 -3 -3 -3 -3 -3 -3 -3 -3 -3 -3 -3 -3 -3 -3 -4 -4 -4 -4
-3 -3 -3 -3 -3 -3 -3 -3 -4 -4 -4 -5 -5 -5 -5 -5 -5 -5 -5 -5 -5 -5 -5 -5 -5 -5 -5 -5 -5 -5 -5 -5 -5 -5 -5 -5 -4 -4 -4 -4 -4 -5 -5 -6 -5 -5 -4 -4 -4 -3 -3 -3 -3 -3 -3 -3 -2 -2 -3 -3 -3 -3 -3 -3 -3 -3 -3 -3 -4
-3 -3 -3 -3 -4 -4 -4 -4 -4 -4 -5 -5 -5 -6 -6 -6 -6 -5 -5 -5 -5 -5 -5 -5 -5 -5 -5 -5 -5 -5 -5 -5 -5 -5 -5 -5 -5 -5 -5 -5 -5 -5 -5 -6 -5 -5 -4 -4 -3 -3 -3 -3 -3 -2 -2 -2 -2 -2 -2 -2 -3 -3 -3 -3 -3 -3 -3 -3 -3
Height
1469 1470 1471 1473 1474 1475 1476 1476 1477 1477 1477 1477 1478 1478 1479 1479 1480 1481 1481 1482 1482 1483 1483 1483 1484 1484 1484 1484 1485 1486 1487 1487 1488 1488 1489 1490 1490 1491 1491 1492 1493 1493 1494 1494 1494 1494 1494 1495 1495 1496 1496 1496 1496 1497 1497 1498 1498 1498 1498 1498 1499 1499 1500 1501 1502 1502 1503 1503 1503
1468 1469 1470 1472 1473 1474 1475 1476 1476 1477 1477 1477 1477 1477 1477 1477 1478 1479 1480 1481 1481 1482 1483 1483 1483 1484 1484 1484 1485 1485 1486 1486 1487 1488 1488 1489 1489 1490 1490 1491 1492 1493 1493 1493 1493 1493 1493 1493 1494 1494 1494 1495 1495 1496 1496 1497 1497 1497 1497 1498 1498 1498 1499 1499 1500 1501 1501 1502 1502
1467 1468 1469 1471 1472 1473 1474 1475 1475 1475 1475 1474 1474 1474 1474 1475 1476 1477 1478 1480 1480 1481 1482 1483 1483 1484 1484 1484 1484 1484 1485 1485 1486 1487 1487 1488 1488 1489 1489 1490 1491 1491 1492 1492 1492 1492 1492 1493 1493 1493 1493 1493 1494 1494 1495 1496 1496 1497 1497 1497 1497 1497 1498 1498 1498 1499 1500 1500 1501
1466 1468 1469 1470 1471 1472 1472 1473 1473 1473 1473 1472 1473 1473 1473 1474 1475 1477 1478 1479 1480 1481 1481 1482 1483 1483 1483 1483 1483 1483 1484 1484 1485 1485 1486 1487 1488 1488 1488 1489 1489 1490 1491 1491 1491 1491 1492 1492 1492 1492 1492 1492 1493 1493 1494 1494 1495 1495 1496 1496 1496 1497 1497 1497 1498 1498 1498 1499 1500
1465 1466 1467 1468 1468 1469 1470 1470 1471 1471 1471 1471 1472 1472 1473 1474 1475 1477 1478 1479 1479 1480 1481 1481 1482 1482 1482 1483 1483 1483 1483 1483 1483 1484 1485 1485 1486 1487 1488 1488 1488 1489 1489 1490 1490 1490 1490 1491 1491 1491 1491 1491 1492 1492 1493 1493 1494 1494 1495 1495 1495 1496 1496 1496 1497 1497 1498 1498 1498
1462 1463 1464 1465 1466 1467 1468 1468 1468 1469 1469 1470 1471 1471 1473 1474 1475 1476 1477 1478 1479 1479 1480 1480 1480 1481 1481 1481 1481 1482 1482 1482 1482 1483 1483 1484 1485 1486 1486 1487 1487 1488 1488 1488 1489 1489 1489 1490 1490 1490 1490 1490 1490 1491 1492 1492 1493 1493 1493 1494 1494 1495 1495 1496 1496 1497 1497 1497 1498
1460 1461 1462 1463 1464 1466 1466 1467 1467 1467 1468 1469 1470 1471 1472 1473 1475 1475 1476 1477 1478 1478 1479 1479 1479 1479 1480 1480 1480 1481 1481 1481 1481 1481 1482 1483 1484 1485 1485 1486 1486 1486 1487 1487 1487 1488 1488 1488 1489 1489 1489 1489 1490 1490 1491 1492 1492 1493 1493 1493 1493 1493 1494 1494 1495 1496 1497 1497 1497
1459 1460 1461 1463 1463 1464 1465 1465 1466 1467 1468 1469 1470 1471 1472 1473 1473 1474 1475 1476 1477 1477 1477 1478 1478 1478 1478 1479 1479 1479 1480 1480 1480 1481 1481 1482 1483 1484 1484 1485 1485 1485 1485 1486 1486 1486 1487 1487 1488 1488 1488 1488 1489 1489 1490 1491 1491 1492 1492 1492 1493 1493 1493 1493 1494 1495 1496 1496 1496
1458 1459 1461 1462 1463 1463 1464 1465 1465 1466 1467 1468 1470 1471 1471 1471 1472 1473 1474 1475 1475 1476 1476 1477 1477 1477 1478 1478 1478 1479 1479 1480 1480 1480 1481 1482 1482 1483 1483 1484 1484 1484 1484 1484 1485 1485 1485 1486 1486 1487 1487 1487 1488 1488 1489 1490 1490 1491 1491 1492 1492 1492 1493 1493 1493 1494 1495 1495 1495
1458 1459 1460 1461 1462 1463 1463 1464 1465 1466 1467 1468 1469 1469 1470 1470 1471 1472 1473 1474 1474 1475 1475 1476 1476 1477 1477 1477 1478 1478 1478 1479 1480 1480 1481 1481 1482 1482 1483 1483 1483 1483 1483 1483 1483 1484 1484 1484 1485 1486 1486 1486 1487 1487 1488 1488 1489 1489 1490 1491 1491 1491 1492 1492 1493 1493 1493 1494 1494
1457 1458 1459 1460 1461 1462 1463 1463 1464 1465 1466 1467 1468 1468 1469 1469 1470 1471 1472 1473 1473 1474 1474 1475 1476 1476 1476 1477 1477 1478 1478 1479 1479 1480 1480 1480 1481 1481 1481 1482 1482 1482 1482 1482 1482 1483 1483 1483 1484 1484 1485 1486 1486 1486 1486 1487 1487 1488 1489 1489 1490 1491 1491 1492 1492 1492 1492 1493 1493
1457 1458 1458 1459 1461 1462 1462 1463 1464 1464 1465 1466 1467 1468 1468 1469 1469 1470 1471 1472 1473 1473 1474 1474 1475 1475 1476 1476 1477 1477 1478 1478 1479 1479 1479 1479 1479 1480 1480 1480 1480 1480 1481 1481 1481 1481 1482 1482 1483 1483 1484 1484 1484 1484 1485 1485 1486 1486 1487 1488 1489 1490 1490 1491 1491 1491 1491 1491 1491
1457 1457 1458 1459 1460 1461 1462 1462 1463 1464 1464 1465 1466 1467 1467 1468 1469 1470 1470 1471 1472 1472 1473 1474 1474 1475 1475 1476 1476 1477 1477 1478 1478 1478 1478 1478 1478 1478 1479 1479 1479 1479 1479 1479 1479 1480 1481 1481 1482 1482 1482 1483 1483 1483 1483 1483 1484 1485 1486 1487 1487 1488 1489 1489 1490 1490 1490 1490 1490
1456 1457 1458 1459 1460 1460 1461 1462 1462 1463 1464 1465 1465 1466 1467 1468 1468 1469 1469 1470 1471 1472 1472 1473 1473 1474 1474 1475 1476 1476 1476 1477 1477 1478 1478 1477 1477 1477 1478 1478 1478 1478 1478 1478 1478 1479 1480 1480 1481 1481 1481 1481 1481 1482 1482 1483 1483 1483 1484 1485 1486 1486 1487 1487 1488 1488 1488 1488 1488
1456 1457 1458 1459 1459 1460 1460 1461 1462 1463 1463 1464 1465 1466 1466 1467 1468 1468 1469 1469 1470 1471 1471 1472 1473 1473 1474 1474 1475 1475 1475 1476 1476 1476 1477 1477 1476 1476 1476 1476 1476 1477 1477 1477 1478 1478 1479 1479 1479 1479 1479 1480 1480 1481 1481 1482 1482 1483 1483 1483 1484 1485 1485 1486 1486 1487 1487 1487 1487
1456 1457 1458 1458 1459 1459 1460 1461 1461 1462 1463 1464 1464 1465 1466 1466 1467 1467 1468 1468 1469 1470 1471 1471 1472 1472 1473 1473 1474 1474 1474 1474 1475 1475 1475 1476 1475 1475 1475 1475 1475 1476 1476 1477 1477 1478 1478 1478 1478 1478 1478 1479 1479 1479 1480 1480 1481 1482 1482 1483 1483 1483 1484 1484 1485 1485 1486 1486 1486
1456 1457 1457 1458 1459 1459 1460 1460 1461 1462 1462 1463 1463 1464 1465 1465 1466 1466 1467 1468 1468 1469 1469 1470 1470 1471 1472 1472 1473 1473 1473 1473 1473 1474 1474 1474 1474 1474 1474 1474 1474 1475 1475 1476 1476 1477 1477 1477 1477 1477 1478 1478 1478 1479 1479 1480 1480 1481 1481 1482 1482 1483 1483 1483 1484 1484 1484 1485 1485
1456 1456 1457 1458 1458 1459 1460 1460 1461 1461 1462 1462 1463 1463 1464 1464 1465 1465 1466 1467 1467 1468 1468 1468 1469 1470 1470 1471 1471 1471 1471 1472 1472 1473 1473 1473 1473 1473 1473 1473 1474 1474 1475 1475 1475 1475 1476 1476 1476 1476 1477 1478 1478 1478 1478 1479 1479 1480 1480 1481 1482 1482 1482 1483 1483 1483 1484 1484 1485
1455 1456 1456 1457 1458 1458 1459 1460 1460 1461 1461 1462 1462 1463 1463 1463 1464 1464 1465 1465 1466 1466 1467 1467 1468 1468 1469 1469 1469 1470 1470 1471 1471 1472 1472 1472 1472 1472 1473 1473 1473 1474 1474 1474 1474 1475 1475 1475 1475 1475 1476 1477 1478 1478 1478 1478 1478 1479 1479 1480 1481 1481 1481 1482 1482 1483 1483 1484 1484
1454 1455 1456 1456 1457 1458 1458 1459 1459 1460 1460 1461 1461 1462 1462 1463 1463 1463 1464 1464 1464 1465 1465 1466 1466 1467 1468 1468 1468 1469 1469 1470 1470 1471 1471 1471 1472 1472 1472 1472 1473 1473 1473 1474 1474 1474 1474 1474 1475 1475 1476 1476 1477 1477 1477 1477 1478 1478 1478 1479 1480 1480 1480 1481 1481 1482 1482 1483 1483
1454 1455 1455 1456 1457 1457 1458 1458 1458 1459 1459 1460 1460 1461 1461 1461 1462 1462 1463 1463 1463 1464 1464 1465 1465 1466 1467 1467 1468 1468 1468 1469 1470 1470 1470 1470 1471 1471 1470 1471 1472 1472 1473 1473 1473 1474 1474 1474 1474 1475 1475 1476 1476 1476 1476 1477 1477 1477 1478 1478 1479 1479 1480 1480 1481 1481 1481 1482 1483
1454 1455 1455 1456 1456 1457 1457 1458 1458 1458 1459 1459 1459 1460 1460 1461 1461 1461 1462 1462 1463 1463 1464 1464 1465 1465 1466 1466 1467 1467 1468 1468 1469 1469 1470 1470 1470 1470 1470 1470 1471 1472 1472 1473 1473 1473 1473 1474 1474 1475 1475 1475 1476 1476 1476 1476 1476 1477 1477 1478 1478 1479 1479 1479 1480 1481 1481 1482 1482
1453 1454 1454 1455 1455 1456 1457 1457 1458 1458 1458 1458 1459 1459 1460 1460 1460 1461 1461 1462 1462 1463 1463 1463 1464 1465 1465 1466 1466 1467 1467 1468 1468 1469 1469 1470 1470 1470 1470 1470 1470 1471 1472 1472 1473 1473 1473 1474 1474 1474 1475 1475 1475 1475 1475 1476 1476 1476 1477 1477 1478 1478 1479 1479 1480 1480 1481 1481 1482
1453 1453 1453 1454 1455 1455 1456 1456 1457 1457 1458 1458 1458 1459 1459 1459 1460 1460 1461 1461 1462 1462 1463 1463 1463 1464 1465 1465 1466 1466 1467 1467 1468 1468 1469 1469 1470 1470 1470 1470 1470 1471 1471 1472 1473 1473 1473 1473 1474 1474 1475 1475 1475 1475 1475 1476 1476 1476 1477 1477 1478 1478 1479 1479 1480 1480 1480 1480 1481
1452 1452 1453 1453 1454 1454 1455 1456 1456 1457 1457 1458 1458 1458 1459 1459 1459 1460 1460 1461 1461 1462 1462 1463 1463 1464 1465 1465 1466 1466 1466 1467 1467 1468 1468 1469 1469 1470 1470 1470 1470 1471 1471 1472 1472 1473 1473 1474 1474 1474 1475 1475 1475 1475 1475 1476 1476 1476 1476 1477 1477 1478 1478 1479 1479 1479 1480 1480 1480
1452 1452 1452 1453 1453 1453 1454 1455 1456 1456 1457 1457 1458 1458 1458 1459 1459 1459 1460 1461 1461 1462 1462 1463 1463 1464 1464 1465 1465 1466 1466 1466 1467 1468 1468 1468 1469 1469 1470 1470 1470 1471 1471 1472 1473 1473 1473 1474 1474 1474 1475 1475 1475 1475 1475 1475 1476 1476 1476 1477 1477 1478 1478 1478 1478 1479 1479 1479 1479
1451 1452 1452 1452 1453 1453 1454 1454 1455 1455 1456 1457 1457 1458 1458 1458 1459 1459 1460 1460 1461 1462 1462 1463 1463 1464 1464 1465 1465 1465 1466 1466 1467 1468 1468 1469 1469 1469 1470 1470 1471 1471 1472 1472 1473 1473 1473 1474 1474 1474 1474 1474 1475 1475 1475 1475 1475 1476 1476 1476 1477 1477 1477 1478 1478 1478 1478 1478 1478
1451 1452 1452 1452 1452 1453 1453 1454 1454 1455 1456 1456 1457 1457 1458 1458 1459 1459 1460 1460 1461 1462 1462 1463 1463 1464 1464 1465 1465 1465 1466 1466 1467 1468 1468 1469 1469 1469 1470 1470 1471 1471 1472 1473 1473 1473 1473 1473 1474 1474 1474 1474 1474 1474 1475 1475 1475 1475 1475 1476 1476 1476 1477 1477 1477 1477 1477 1477 1477
1451 1452 1452 1452 1453 1453 1453 1454 1454 1455 1456 1456 1457 1458 1458 1458 1459 1460 1460 1461 1461 1462 1462 1463 1463 1464 1464 1465 1465 1465 1466 1467 1467 1468 1469 1469 1469 1470 1470 1471 1471 1472 1473 1473 1473 1473 1473 1473 1473 1474 1474 1474 1474 1474 1474 1474 1474 1475 1475 1475 1475 1476 1476 1476 1476 1476 1476 1476 1476
1452 1452 1452 1453 1453 1453 1454 1454 1455 1456 1456 1457 1457 1458 1458 1459 1459 1460 1461 1461 1462 1462 1463 1463 1464 1464 1465 1465 1465 1466 1466 1467 1468 1469 1469 1470 1470 1470 1470 1471 1471 1472 1473 1473 1473 1473 1473 1473 1473 1473 1473 1474 1474 1474 1474 1474 1474 1474 1474 1474 1475 1475 1475 1475 1475 1475 1475 1475 1475
1453 1453 1453 1453 1454 1454 1455 1455 1456 1457 1457 1458 1458 1458 1459 1459 1460 1461 1462 1462 1463 1463 1463 1464 1464 1465 1465 1466 1466 1466 1467 1467 1468 1469 1470 1470 1470 1470 1471 1471 1472 1473 1473 1473 1473 1473 1473 1473 1473 1473 1473 1473 1473 1473 1473 1473 1473 1473 1473 1474 1474 1474 1474 1474 1474 1474 1474 1474 1474
1454 1454 1454 1455 1455 1455 1456 1457 1457 1458 1458 1459 1459 1460 1460 1461 1461 1462 1463 1463 1463 1464 1464 1465 1465 1466 1466 1466 1467 1467 1467 1468 1469 1469 1470 1470 1470 1470 1471 1471 1472 1473 1473 1473 1473 1473 1473 1472 1472 1472 1472 1472 1472 1472 1473 1473 1473 1473 1473 1473 1473 1473 1473 1474 1474 1474 1474 1474 1474
1455 1455 1456 1456 1456 1457 1457 1458 1458 1459 1459 1460 1460 1461 1462 1462 1463 1463 1463 1464 1465 1465 1465 1466 1466 1466 1467 1467 1467 1468 1468 1468 1469 1470 1470 1470 1470 1471 1471 1472 1472 1473 1473 1473 1473 1472 1472 1472 1472 1472 1472 1472 1472 1472 1472 1472 1472 1472 1472 1473 1473 1473 1473 1473 1473 1473 1473 1473 1473
1457 1457 1457 1457 1458 1458 1458 1459 1459 1460 1460 1461 1462 1462 1463 1463 1464 1464 1465 1465 1466 1466 1466 1467 1467 1467 1467 1468 1468 1468 1468 1469 1470 1470 1470 1470 1470 1471 1471 1472 1472 1472 1472 1472 1472 1471 1471 1471 1471 1471 1471 1471 1471 1471 1471 1471 1471 1472 1472 1472 1472 1472 1473 1473 1473 1473 1473 1473 1473
1458 1458 1458 1458 1459 1459 1460 1460 1460 1461 1461 1462 1462 1463 1463 1464 1465 1465 1466 1466 1467 1467 1467 1468 1468 1468 1468 1468 1468 1469 1469 1470 1470 1470 1471 1470 1471 1471 1471 1471 1471 1471 1471 1471 1471 1471 1470 1470 1470 1470 1470 1470 1470 1470 1471 1471 1471 1471 1471 1472 1472 1472 1472 1473 1473 1473 1473 1473 1473
1458 1458 1459 1459 1460 1460 1460 1461 1461 1462 1462 1462 1463 1463 1464 1464 1465 1466 1466 1467 1467 1468 1468 1468 1468 1468 1469 1469 1469 1469 1470 1470 1470 1471 1471 1471 1471 1471 1471 1471 1471 1471 1471 1470 1470 1470 1470 1470 1470 1470 1470 1470 1470 1470 1470 1471 1471 1471 1471 1472 1472 1472 1473 1473 1473 1473 1473 1473 1473
1458 1459 1459 1460 1460 1461 1461 1462 1462 1463 1463 1463 1463 1464 1464 1465 1466 1466 1467 1467 1468 1468 1468 1468 1469 1469 1469 1470 1470 1470 1470 1471 1471 1471 1471 1471 1471 1471 1471 1471 1471 1471 1471 1471 1471 1471 1471 1470 1470 1470 1470 1470 1470 1470 1470 1471 1471 1471 1471 1472 1472 1472 1473 1473 1473 1473 1473 1473 1473
1458 1459 1459 1460 1460 1461 1462 1462 1463 1463 1463 1464 1464 1465 1465 1466 1466 1467 1468 1468 1468 1468 1468 1469 1469 1470 1470 1470 1470 1470 1471 1471 1471 1471 1471 1470 1470 1471 1471 1471 1471 1471 1471 1471 1471 1471 1471 1471 1470 1470 1470 1470 1470 1470 1470 1471 1471 1471 1471 1472 1472 1472 1473 1473 1473 1473 1473 1473 1473
1459 1459 1460 1460 1461 1461 1462 1462 1463 1463 1463 1464 1464 1465 1466 1466 1467 1468 1468 1468 1468 1469 1469 1470 1470 1470 1471 1471 1471 1471 1471 1471 1471 1471 1471 1471 1471 1471 1471 1471 1472 1472 1472 1472 1471 1471 1471 1471 1471 1471 1471 1471 1471 1471 1471 1471 1471 1471 1471 1472 1472 1472 1473 1473 1473 1473 1473 1473 1473
1459 1460 1460 1460 1461 1461 1462 1462 1463 1463 1463 1464 1464 1465 1466 1467 1467 1468 1468 1468 1469 1469 1470 1470 1470 1471 1471 1471 1471 1471 1471 1472 1472 1471 1471 1471 1471 1472 1472 1472 1472 1472 1472 1472 1471 1471 1471 1471 1471 1471 1471 1471 1471 1471 1471 1471 1471 1471 1472 1472 1472 1473 1473 1473 1473 1473 1473 1473 1473
1460 1460 1460 1460 1461 1461 1462 1462 1463 1463 1463 1464 1465 1465 1466 1467 1467 1468 1468 1468 1469 1469 1470 1470 1471 1471 1471 1471 1471 1472 1472 1472 1472 1472 1472 1472 1472 1472 1472 1473 1472 1472 1472 1472 1471 1471 1471 1471 1471 1471 1471 1471 1471 1472 1472 1472 1472 1472 1472 1472 1472 1473 1473 1473 1473 1473 1473 1473 1473
Wind_Speed
24 22 19 18 18 19 19 18 18 17 16 16 15 15 16 17 19 20 20 21 21 22 23 24 24 25 24 24 22 21 20 20 19 19 19 19 19 18 17 15 14 15 16 18 19 19 18 17 18 18 18 16 13 12 14 16 18 18 19 19 19 19 18 18 19 19 20 19 18
23 21 19 17 17 18 18 17 17 16 16 16 16 17 18 20 21 21 21 21 21 21 22 22 23 23 23 23 22 21 21 20 19 19 19 19 19 18 17 16 15 15 17 19 20 20 19 18 19 19 18 16 14 14 16 18 19 20 20 20 20 20 20 19 20 20 21 20 19
22 21 19 17 17 18 18 17 17 17 18 19 20 21 22 23 23 22 21 21 21 20 20 21 21 21 21 22 22 22 22 21 20 20 20 20 20 19 18 18 17 16 17 19 20 20 19 19 19 19 17 16 15 16 18 19 19 19 19 21 21 21 21 21 21 21 21 20 19
20 20 19 19 19 19 19 19 18 19 20 22 23 23 23 23 22 22 21 20 19 19 20 20 20 20 21 22 23 23 23 23 22 21 21 21 21 20 19 19 18 18 18 19 20 20 20 19 19 18 17 16 16 17 18 17 17 17 18 19 20 20 20 20 20 21 21 20 18
20 21 21 21 20 20 20 20 19 20 21 23 24 24 23 22 21 20 19 19 19 19 19 18 19 19 21 22 23 24 25 24 23 23 22 22 22 21 20 19 19 18 18 19 19 20 19 19 19 18 17 16 17 17 16 16 16 16 16 16 16 17 17 17 18 19 19 18 17
22 23 23 22 22 21 20 20 20 21 22 24 24 24 22 20 19 19 19 18 18 17 17 17 18 19 20 22 23 24 25 25 25 24 23 23 22 22 21 20 19 19 19 19 19 19 18 18 18 17 16 16 16 16 16 15 15 15 14 14 14 14 14 15 16 17 18 18 18
24 24 23 22 22 22 22 22 22 22 23 23 23 22 21 20 20 20 20 19 18 17 16 16 17 18 19 21 22 24 25 25 25 23 22 22 22 22 21 20 19 19 19 19 19 18 18 18 17 16 15 15 15 15 15 15 15 15 14 14 14 14 14 14 16 19 20 20 20
24 24 23 22 22 22 23 23 22 22 21 21 20 20 20 20 21 21 21 20 18 17 16 17 17 18 18 20 21 23 23 23 22 20 20 20 21 22 22 20 20 19 19 19 19 19 18 18 17 15 15 14 15 15 16 16 16 15 15 14 14 14 14 15 17 19 21 21 20
23 23 22 22 22 23 23 23 22 20 19 18 18 19 20 20 21 21 21 19 18 17 17 17 17 18 18 19 20 20 20 18 17 17 18 19 21 22 22 21 20 20 20 20 20 19 19 18 17 16 16 15 16 17 18 18 18 17 16 16 15 15 16 16 18 19 21 21 19
22 22 22 22 23 23 23 23 21 20 18 18 19 20 20 21 21 21 20 19 18 17 16 16 16 17 18 19 19 18 16 15 15 16 18 19 20 21 21 21 20 20 19 20 20 20 19 19 18 18 18 18 18 19 20 20 20 19 19 18 17 17 17 18 19 20 20 20 18
22 22 23 23 23 23 23 22 21 20 20 20 21 21 21 21 20 20 19 18 17 16 16 15 15 16 17 18 17 16 15 15 15 16 18 19 20 20 21 21 20 19 19 19 19 19 19 19 19 19 20 20 21 22 23 22 22 21 21 19 19 18 18 19 20 21 21 21 19
22 23 24 24 24 24 23 22 22 22 22 23 23 22 21 20 19 19 18 17 17 16 15 14 15 15 16 15 15 15 16 16 16 17 17 18 19 19 20 20 19 19 18 18 18 18 18 18 19 20 21 23 24 25 25 25 24 23 22 21 21 20 20 21 23 24 23 22 20
21 22 23 24 24 24 24 23 24 24 24 24 24 23 21 20 19 18 18 17 16 15 14 14 14 14 14 14 15 16 17 17 18 18 18 17 17 18 18 18 18 18 17 17 17 17 17 19 20 21 22 24 25 26 26 25 24 23 23 22 23 23 23 23 25 25 24 22 20
20 21 22 22 23 23 23 23 24 24 25 24 23 22 20 19 18 18 17 17 15 14 14 14 14 14 14 15 15 16 17 18 19 19 19 18 17 17 17 17 17 17 17 16 16 17 18 20 21 21 22 23 24 24 24 24 24 23 23 23 23 24 24 24 25 25 23 21 20
20 20 21 21 22 21 21 21 21 22 22 21 21 20 19 18 18 17 17 16 14 14 14 14 14 14 15 15 16 16 17 17 18 19 19 18 18 18 18 17 17 16 16 16 17 19 20 21 20 20 20 21 22 22 23 23 22 22 22 22 22 22 23 24 24 24 22 21 20
19 20 21 21 22 21 21 20 19 19 19 18 18 18 18 17 17 17 16 15 14 14 14 15 15 15 15 15 16 16 16 16 16 17 18 19 19 19 18 17 16 16 16 17 19 20 20 20 19 18 19 20 21 21 21 21 20 20 19 19 20 21 22 23 23 22 22 21 20
15 17 18 20 20 21 21 20 20 19 18 18 18 18 17 17 16 16 15 14 14 15 15 15 15 15 15 16 16 15 14 14 15 16 18 19 19 19 17 16 15 15 16 17 19 20 19 19 18 17 18 19 20 20 20 19 18 17 17 18 19 20 21 21 21 21 20 20 20
11 12 14 15 16 17 18 18 19 18 18 17 17 18 17 17 16 15 15 15 15 15 15 15 15 15 15 15 15 14 13 13 14 16 18 19 20 18 16 15 14 15 16 17 18 18 18 18 17 17 17 18 18 18 18 17 16 16 16 17 18 19 20 19 19 18 17 16 17
9 10 10 11 12 13 14 15 16 16 16 16 17 17 17 16 16 15 15 15 15 15 15 14 14 14 14 14 13 13 13 14 15 16 18 19 19 18 17 15 15 15 16 16 16 17 17 17 17 16 16 17 17 17 16 16 15 15 15 16 17 17 17 17 16 15 14 14 13
11 11 11 11 10 11 12 12 13 14 15 16 16 17 16 16 16 15 15 14 14 14 14 14 14 14 13 13 12 12 13 14 15 17 18 19 19 18 18 16 16 16 16 16 16 16 16 16 16 16 16 16 16 16 15 15 14 14 15 15 15 15 15 14 14 13 12 11 10
11 12 12 12 12 12 12 12 13 14 14 15 16 16 15 15 15 14 14 14 14 14 13 13 13 13 13 13 13 13 14 15 16 18 18 19 19 19 19 18 17 17 16 17 16 16 16 15 15 15 15 15 15 14 13 13 13 14 14 14 14 13 12 11 10 9 8 7 7
8 9 11 12 12 12 12 12 13 13 13 14 14 14 14 14 14 14 14 14 14 13 13 13 13 13 13 14 14 15 15 16 17 17 18 18 19 19 18 18 17 17 17 17 16 15 15 14 14 13 13 13 12 11 11 11 11 12 12 12 11 9 8 7 7 6 6 6 6
5 7 8 10 11 11 12 12 12 12 12 12 12 13 13 13 14 14 14 13 13 13 12 12 13 13 14 14 15 16 16 17 17 17 17 17 17 17 17 16 16 16 16 15 14 13 13 12 12 11 10 10 9 8 8 8 8 9 9 9 7 6 6 5 5 6 6 7 7
5 6 7 7 8 9 10 11 11 11 11 12 12 12 13 13 13 13 13 13 12 12 12 12 12 13 13 14 15 16 17 17 17 17 17 17 17 16 15 14 14 13 13 12 11 10 9 9 8 8 8 7 6 6 6 6 6 6 6 6 6 6 6 6 7 7 8 8 9
6 6 6 6 6 7 8 9 10 11 11 11 11 12 12 12 13 13 13 12 11 11 11 12 12 12 13 15 15 16 16 17 17 17 17 17 16 15 14 13 12 12 11 10 9 8 8 7 7 6 6 6 5 5 5 5 5 5 5 6 6 7 7 8 8 9 9 10 10
6 6 6 6 6 6 7 8 9 10 10 10 11 11 11 11 12 12 11 11 10 10 11 11 12 13 14 16 16 17 17 17 16 16 16 15 15 14 13 12 11 10 10 9 8 7 7 6 6 6 5 5 5 5 5 5 6 6 6 7 7 8 8 9 9 10 11 11 11
6 6 5 5 5 6 7 7 8 9 9 10 10 10 10 11 11 11 10 10 10 11 11 12 14 15 15 16 17 17 17 16 15 14 14 13 13 13 12 11 10 9 8 8 7 7 6 6 5 5 5 5 5 6 6 6 6 7 7 7 8 8 9 9 10 10 11 11 11
5 5 5 5 5 6 6 7 7 8 8 9 9 10 10 10 10 10 11 11 13 14 15 15 15 15 16 16 16 16 16 15 14 13 12 12 11 11 10 10 9 8 7 7 6 6 6 5 5 5 5 5 6 6 6 6 6 7 7 8 8 9 9 9 10 10 10 11 10
4 4 4 5 5 6 7 7 7 8 9 9 10 11 11 12 12 13 13 14 15 16 17 17 16 15 15 15 15 14 14 13 12 11 10 9 9 8 8 8 8 7 7 6 6 6 6 6 6 6 6 6 6 6 6 6 6 7 7 8 8 9 9 9 9 9 9 9 9
5 5 6 6 7 7 8 8 9 9 10 11 12 13 14 14 15 15 16 16 16 17 17 16 15 14 14 13 12 12 11 11 10 9 8 7 7 7 7 7 7 7 7 6 6 6 6 6 6 6 6 6 6 6 6 6 6 6 7 7 8 8 8 8 7 7 7 8 8
8 8 8 9 9 10 10 10 11 11 12 13 14 15 16 16 17 17 16 16 16 16 15 14 13 13 11 11 10 10 10 10 9 8 7 7 7 7 7 7 7 7 6 6 6 6 6 6 5 5 5 6 6 6 6 6 6 6 6 6 6 6 6 6 6 6 6 6 5
12 12 12 12 12 12 12 13 13 13 13 14 15 15 16 16 17 16 16 15 15 14 13 13 12 12 10 9 9 9 10 10 9 9 8 8 8 8 8 7 7 6 6 5 5 5 5 5 4 5 5 5 5 6 6 5 5 5 5 5 5 5 5 5 5 5 5 4 4
15 15 15 15 15 15 15 15 15 15 15 15 15 15 15 15 15 15 15 14 14 13 13 12 12 11 10 9 9 9 10 10 10 9 9 8 8 8 7 7 6 5 5 4 4 4 4 4 4 4 4 4 5 5 5 4 5 5 5 5 5 4 4 4 4 4 4 5 5
16 17 17 17 17 17 17 17 17 16 16 16 15 15 15 14 14 14 14 14 13 12 11 11 11 10 10 9 8 9 9 9 9 8 8 7 6 6 5 4 4 4 4 3 3 3 3 2 3 3 3 3 3 3 4 4 4 4 4 4 4 4 4 4 4 4 4 4 5
15 15 16 16 17 17 18 18 17 17 16 16 16 15 15 14 14 13 13 13 12 12 11 10 10 10 9 8 7 7 7 7 6 6 5 4 4 3 2 3 4 4 4 3 3 2 2 2 2 2 2 3 3 3 4 4 5 5 5 5 5 4 4 4 4 3 3 3 3
13 13 13 14 14 15 15 16 16 16 16 16 16 15 15 14 13 12 12 12 12 12 12 11 11 10 9 8 7 6 5 5 5 4 4 3 2 2 2 3 4 4 4 3 3 3 4 4 4 4 4 4 4 5 5 6 6 6 6 6 6 6 6 5 5 4 3 3 2
11 11 11 11 11 12 12 12 13 13 13 14 14 14 14 13 12 11 11 11 11 12 12 12 12 11 11 10 8 7 6 4 4 4 4 3 2 2 2 3 5 5 5 4 4 5 5 5 5 5 5 6 6 7 7 7 7 7 7 7 7 7 6 6 5 4 3 3 2
10 10 10 10 10 10 10 10 10 11 11 11 11 12 12 12 12 11 10 10 11 11 12 12 13 13 13 12 11 8 6 4 4 5 5 5 3 3 3 5 7 7 7 6 6 6 6 6 6 6 6 7 7 8 8 8 8 8 7 7 6 6 5 5 4 4 3 3 2
9 9 9 9 9 9 9 8 9 9 9 10 10 10 11 12 13 14 13 12 11 12 12 13 14 14 14 13 12 9 7 6 6 6 5 4 3 2 3 6 9 10 8 6 5 5 6 6 6 6 6 7 7 8 8 8 8 7 6 6 6 5 5 4 4 3 3 3 3
8 8 8 8 8 8 8 7 7 8 8 8 9 10 11 14 16 17 16 15 15 14 14 15 15 15 15 13 12 10 9 9 8 6 5 4 3 2 3 5 9 10 9 7 5 4 5 6 6 6 6 6 7 7 7 7 7 6 6 5 5 4 4 3 3 3 3 3 4
8 8 8 8 8 8 8 8 7 7 8 8 9 11 14 17 19 19 18 18 17 17 17 16 16 15 14 13 12 11 11 12 12 10 8 7 6 5 4 4 5 7 7 7 5 4 5 6 6 6 6 6 6 5 5 5 5 5 4 4 4 3 3 2 3 3 3 3 3
Wind_Direction
218 213 211 214 217 219 219 218 215 213 212 212 212 211 211 212 214 215 217 218 220 220 221 224 228 235 241 246 249 251 252 252 251 249 248 246 247 248 248 246 241 237 235 236 238 241 243 245 247 247 247 247 247 250 254 256 257 258 260 262 261 257 249 242 239 237 235 233 231
220 214 210 212 217 219 219 216 213 211 208 205 201 201 204 209 212 213 214 216 220 222 225 227 231 236 242 247 250 252 252 252 250 247 244 242 242 243 243 242 239 235 233 233 236 239 242 245 245 245 244 244 244 246 247 246 246 247 249 252 253 251 247 242 238 236 234 231 230
220 214 209 210 216 219 217 213 209 206 204 202 199 200 203 208 210 210 212 215 220 225 228 231 235 239 244 248 251 253 254 253 251 247 243 240 238 238 238 238 236 234 232 232 233 236 239 242 243 242 241 241 242 242 242 241 240 241 242 242 241 238 235 232 231 230 228 226 225
216 209 206 208 213 216 214 208 203 202 203 203 203 204 206 208 209 211 214 218 223 227 232 236 240 244 247 250 253 254 255 255 253 249 243 239 236 236 235 235 235 234 234 233 233 235 237 241 241 240 238 237 238 238 236 235 234 235 236 236 234 231 228 226 225 225 224 223 222
207 203 203 206 208 209 208 204 200 201 203 205 207 208 209 211 213 216 220 224 228 232 237 242 246 249 250 252 253 255 256 257 255 251 245 239 236 234 234 233 233 233 233 234 233 234 236 239 239 238 235 233 233 231 229 229 228 228 230 232 232 232 233 232 231 229 227 225 224
202 202 203 203 204 204 203 200 199 201 204 207 209 212 215 218 222 225 229 231 235 240 246 251 253 254 254 254 254 255 257 257 257 253 247 240 236 234 233 232 231 231 231 232 231 232 233 236 236 235 232 230 227 226 225 224 224 224 226 228 230 232 236 239 239 236 232 229 227
200 202 202 202 201 202 203 203 202 203 205 207 210 214 220 226 230 232 234 236 241 248 255 259 260 260 258 257 256 256 257 257 258 255 250 242 237 235 234 232 230 228 228 228 228 228 229 231 232 231 229 226 225 224 224 224 226 227 226 227 229 231 235 239 241 239 236 232 227
199 201 202 202 202 203 205 206 205 204 205 207 211 218 224 230 233 234 236 239 245 252 258 262 265 265 263 261 259 257 257 258 258 257 253 246 241 238 236 234 231 227 226 225 224 224 225 227 230 231 230 228 227 228 231 234 234 233 231 230 230 231 234 237 238 238 235 232 227
200 201 203 204 204 205 207 208 207 205 206 210 216 222 227 230 233 235 237 240 246 252 258 263 266 267 266 264 261 258 257 257 255 252 250 248 244 241 238 236 232 228 225 224 223 223 224 227 231 235 236 234 232 233 236 239 240 239 236 234 232 232 233 235 235 235 233 231 229
202 203 205 206 207 208 209 209 208 207 209 215 220 225 228 231 233 235 237 240 245 250 256 260 264 265 265 263 260 256 253 251 249 246 245 243 241 239 237 235 233 229 226 224 223 223 224 227 232 237 240 240 238 236 236 238 240 241 239 236 234 233 234 235 235 235 233 231 229
204 206 207 208 209 210 210 210 209 210 214 219 224 227 230 232 234 235 237 240 244 248 253 257 260 261 261 260 258 253 248 244 245 245 243 238 235 234 233 233 231 229 226 224 223 223 225 228 232 236 239 241 240 238 237 236 238 239 239 239 237 236 236 238 239 238 235 231 228
205 208 209 209 210 210 211 210 210 212 216 220 224 227 230 232 234 235 237 239 242 246 250 253 255 255 256 255 254 250 245 241 244 248 247 240 234 230 230 230 229 227 225 224 223 224 226 229 232 234 237 238 239 238 237 235 235 236 238 240 241 240 238 238 239 239 235 229 224
206 208 209 209 210 211 210 210 211 214 218 221 224 227 230 232 234 235 236 238 240 244 247 250 251 251 250 248 248 246 243 241 243 249 251 246 238 232 230 229 228 226 224 222 223 227 230 232 233 234 235 237 239 238 237 236 235 236 238 239 240 239 237 235 235 234 231 223 217
210 209 210 210 212 212 212 211 213 216 219 223 225 228 231 233 235 236 237 238 240 243 246 248 250 250 249 248 247 244 242 240 241 247 253 252 245 238 234 231 228 225 223 223 226 231 235 236 234 233 234 236 238 238 238 237 237 237 237 237 236 234 232 230 230 228 223 217 213
213 214 215 217 219 220 219 217 217 220 223 226 229 231 234 236 237 239 239 240 241 244 247 249 250 251 253 253 253 251 246 241 240 244 251 254 249 242 236 233 229 225 223 226 231 235 237 236 234 233 233 234 235 236 237 237 238 237 235 234 232 231 229 227 226 223 220 218 216
210 215 219 223 227 230 231 229 228 229 231 232 234 236 238 239 240 241 242 243 244 246 248 250 251 253 255 257 258 257 252 245 241 244 249 252 249 243 237 234 230 227 226 229 232 233 233 231 231 231 232 232 232 232 233 234 234 234 234 234 234 233 231 229 226 224 223 225 224
203 208 213 219 225 231 235 237 238 239 240 240 241 242 243 243 243 244 245 246 248 249 251 253 255 256 257 259 260 260 258 251 247 247 249 250 247 240 235 232 230 229 229 230 231 230 228 225 224 225 226 227 227 226 227 228 229 232 235 237 238 237 234 229 227 226 227 230 229
203 205 207 210 216 223 230 235 238 241 242 243 245 246 247 248 248 249 250 252 253 255 257 259 260 260 260 260 261 262 261 258 255 254 252 250 243 234 228 226 227 228 229 228 227 225 222 218 215 214 216 218 218 218 218 220 223 228 233 236 236 235 231 228 226 227 228 229 230
221 219 218 217 218 222 226 232 236 239 243 245 247 250 251 253 253 254 255 257 258 260 262 264 265 265 263 262 261 261 261 259 258 257 254 248 237 225 217 216 219 222 223 223 220 216 211 207 205 205 207 209 209 209 210 213 218 224 229 231 231 229 227 226 227 228 229 228 230
234 236 238 238 237 237 237 240 243 246 249 250 252 254 255 256 256 257 258 259 260 262 265 269 273 273 270 264 258 254 254 254 255 255 252 243 229 214 204 203 208 212 215 216 213 207 202 199 200 202 204 206 206 205 206 209 214 219 224 225 225 224 225 227 230 232 234 236 240
241 243 245 247 249 250 251 252 253 254 255 255 256 256 256 256 256 257 258 259 262 265 270 275 279 280 275 265 253 245 243 246 248 248 245 237 223 208 197 194 197 203 207 208 205 201 199 199 201 203 205 206 205 204 204 207 211 215 219 221 222 223 225 229 234 238 244 251 259
249 248 248 249 250 252 253 254 255 255 256 256 255 255 255 255 256 257 258 260 264 269 275 279 280 278 270 259 245 236 234 238 239 238 235 228 216 204 194 188 189 193 197 200 199 199 199 200 201 203 205 205 205 203 203 205 209 213 217 220 223 226 230 234 239 245 251 257 262
271 264 259 254 252 252 252 252 253 253 254 254 254 255 255 256 258 259 261 264 268 273 277 278 275 269 260 248 236 228 226 227 226 222 217 213 207 198 190 182 180 183 187 191 194 195 196 197 198 200 202 203 203 202 202 204 209 213 217 221 226 230 236 240 243 245 248 251 255
295 291 283 272 263 258 256 256 256 256 257 258 259 260 261 262 263 264 265 268 271 274 274 270 265 257 247 235 225 217 214 212 208 201 197 197 196 192 185 178 172 172 175 181 184 186 188 190 192 195 198 200 200 200 201 203 207 212 216 221 226 232 238 241 242 244 247 250 253
295 296 293 285 276 268 263 260 260 259 261 263 263 264 265 266 267 267 269 270 270 268 263 256 248 239 229 219 210 204 200 196 190 185 183 185 187 186 182 174 166 162 162 166 169 174 178 184 188 193 197 200 202 205 207 209 212 216 219 224 228 232 237 241 244 246 248 250 251
280 279 276 271 266 260 256 254 254 255 258 260 261 261 262 262 262 263 264 263 257 249 241 234 226 218 210 202 196 192 188 183 179 175 174 175 176 176 174 170 163 155 151 152 156 163 172 181 189 196 200 205 209 214 217 219 221 223 226 229 233 235 239 242 245 248 249 250 251
265 263 257 249 245 240 238 239 242 244 247 249 250 249 249 248 247 247 244 238 230 222 215 210 205 199 193 188 184 181 178 175 172 170 169 167 164 163 164 166 163 155 148 145 149 158 169 179 189 198 206 211 216 220 224 226 227 229 231 234 238 240 242 244 246 248 250 251 252
244 242 238 231 223 218 218 221 224 226 226 227 227 227 227 225 222 218 213 209 206 201 195 190 188 184 181 177 174 172 170 168 165 163 163 162 159 158 160 163 161 156 150 148 152 161 171 183 195 207 216 221 224 225 227 229 232 235 237 240 242 244 245 246 247 249 250 250 251
201 203 204 201 196 195 196 198 199 200 200 200 199 200 199 197 193 189 187 186 186 183 178 174 173 172 168 165 164 164 162 158 156 155 154 153 152 154 157 160 160 158 156 157 163 172 182 192 203 213 223 229 230 232 232 234 237 240 241 242 243 243 243 243 244 245 245 246 248
156 162 166 167 169 169 170 171 174 177 179 180 179 178 177 175 172 170 169 168 167 166 164 162 159 156 154 152 152 149 147 145 144 144 143 142 143 146 152 159 162 162 164 168 176 183 189 196 203 211 219 227 234 236 237 236 237 238 238 238 237 236 235 235 234 234 236 241 246
133 139 143 147 149 150 150 152 156 160 164 165 165 165 163 162 159 157 156 155 154 154 153 150 144 141 140 140 140 138 136 135 135 137 139 143 145 148 153 158 162 165 169 176 180 185 189 194 199 205 212 220 228 232 233 232 230 228 227 226 225 223 222 221 221 221 224 232 240
123 127 132 135 136 138 139 142 145 148 151 153 154 155 155 153 151 148 146 145 143 140 138 136 135 134 134 134 136 134 133 131 133 137 143 148 151 154 157 161 164 168 172 175 175 177 182 189 197 205 212 219 223 224 224 222 219 216 214 212 209 208 207 207 205 205 207 209 210
118 120 122 124 126 128 130 133 135 138 141 143 145 146 146 145 143 140 137 136 134 132 132 133 134 135 137 139 140 138 135 134 136 140 144 148 153 158 163 167 166 163 161 159 160 164 174 186 197 206 212 217 217 216 213 209 206 203 200 196 194 194 194 193 191 190 187 184 178
119 118 118 118 119 120 122 124 126 129 132 134 136 136 136 136 134 132 130 129 130 132 135 137 138 139 142 146 148 145 141 139 139 142 144 147 153 160 164 156 137 126 122 124 130 140 154 170 186 194 198 200 198 194 189 184 181 178 175 173 173 173 173 172 170 170 173 174 175
126 123 121 119 117 117 117 117 119 121 123 125 126 127 128 128 128 127 127 127 130 134 138 141 143 144 146 151 156 154 147 143 141 142 142 142 147 151 134 102 91 87 87 91 98 108 122 135 145 155 159 160 158 156 154 153 152 151 150 149 146 143 139 136 136 141 152 165 179
137 134 130 127 124 121 118 117 116 116 117 117 119 120 121 122 123 125 127 130 134 139 142 144 146 147 148 153 158 158 153 148 143 139 133 126 124 119 99 86 85 83 83 87 102 114 120 124 128 133 138 138 138 137 137 138 137 136 135 133 130 127 124 123 124 130 138 151 173
139 139 137 136 134 130 127 123 121 119 118 118 118 119 120 120 122 126 131 138 142 145 146 146 146 147 149 154 158 159 157 151 140 128 120 114 113 111 106 97 89 87 87 97 112 122 126 128 132 136 139 138 136 134 133 132 131 130 129 127 126 125 125 126 130 136 145 157 178
134 135 136 137 137 136 133 130 128 126 126 125 125 124 124 126 130 135 143 149 152 151 151 151 151 153 157 161 164 162 154 133 114 107 105 107 106 105 101 94 86 81 82 93 109 121 128 133 137 142 144 141 138 136 134 133 131 130 130 130 130 132 134 137 144 153 164 180 200
132 132 133 134 134 134 134 134 134 132 132 132 132 133 136 141 145 149 154 158 161 162 161 161 161 164 167 170 171 164 146 120 108 104 105 108 114 119 108 97 88 84 82 86 102 119 130 136 142 145 145 143 141 140 139 139 138 137 137 138 140 143 149 155 162 173 187 203 218
138 137 136 136 136 136 138 139 140 138 137 137 140 145 152 157 158 159 160 163 166 169 170 170 172 174 177 180 180 170 150 133 130 134 140 150 171 175 141 108 96 91 88 85 92 113 130 137 141 142 142 142 143 145 147 148 149 149 150 152 154 160 167 180 189 198 208 218 230
150 148 147 145 144 145 147 150 153 153 152 153 157 163 167 168 167 166 167 168 170 172 173 175 177 179 182 184 184 175 161 151 151 156 166 175 184 185 165 125 102 94 88 83 84 102 125 135 137 138 139 141 145 149 154 158 160 161 163 165 170 177 193 216 232 242 245 247 250